W5HRH Weather Reports


Display with metric or nautical units.
time (UTC)temp
F
wind
direction
speed
MPH
gust
MPH
rain 1hr
in
rain 24hr
in
rain mn
in
humidity
%
barometer
mb
20260902000013 82 55 1.0 8.0 0.00 0.00 0.00 80 1014.1
20260901235509 82 51 2.0 8.0 0.00 0.00 0.00 79 1014.1
20260901235008 82 40 2.0 6.0 0.00 0.00 0.00 79 1014.1
20260901234508 82 28 2.0 5.0 0.00 0.00 0.00 80 1014.0
20260901234007 82 342 0.0 5.0 0.00 0.00 0.00 80 1014.0
20260901233508 82 38 1.0 8.0 0.00 0.00 0.00 80 1014.1
20260901233011 82 45 4.0 9.0 0.00 0.00 0.00 80 1014.2
20260901232506 82 17 3.0 9.0 0.00 0.00 0.00 80 1014.3
20260901232009 82 338 3.0 9.0 0.00 0.00 0.00 80 1014.4
20260901231504 82 28 3.0 9.0 0.00 0.00 0.00 81 1014.5
20260901231004 83 88 3.0 8.0 0.00 0.00 0.00 83 1014.5
20260901230504 83 40 3.0 8.0 0.00 0.00 0.00 83 1014.7
20260901230005 83 66 2.0 6.0 0.00 0.00 0.00 83 1014.6
20260901225504 83 85 2.0 10.0 0.00 0.00 0.00 83 1014.7
20260901225004 83 90 3.0 11.0 0.00 0.00 0.00 83 1014.8
20260901224513 83 109 4.0 10.0 0.00 0.00 0.00 83 1014.9
20260901224003 84 48 3.0 10.0 0.00 0.00 0.00 83 1014.9
20260901223503 84 49 2.0 6.0 0.00 0.00 0.00 83 1014.7
20260901223004 85 67 3.0 6.0 0.00 0.00 0.00 84 1014.7
20260901222503 85 92 0.0 3.0 0.00 0.00 0.00 82 1014.5
20260901222004 85 92 0.0 3.0 0.00 0.00 0.00 81 1014.5
20260901221502 86 82 0.0 6.0 0.00 0.00 0.00 80 1014.5
20260901221002 86 73 0.0 6.0 0.00 0.00 0.00 78 1014.4
20260901220503 87 95 0.0 3.0 0.00 0.00 0.00 78 1014.5
20260901220001 87 93 1.0 4.0 0.00 0.00 0.00 75 1014.7
20260901215501 88 97 1.0 4.0 0.00 0.00 0.00 72 1014.7
20260901215101 88 55 1.0 3.0 0.00 0.00 0.00 71 1014.7
20260901214500 88 68 1.0 3.0 0.00 0.00 0.00 71 1014.8
20260901214100 89 67 1.0 3.0 0.00 0.00 0.00 70 1015.0
20260901213600 89 46 0.0 4.0 0.00 0.00 0.00 70 1015.0
20260901213100 89 48 1.0 4.0 0.00 0.00 0.00 69 1015.0
20260901212600 89 69 0.0 3.0 0.00 0.00 0.00 69 1015.0
20260901212059 89 68 0.0 3.0 0.00 0.00 0.00 69 1014.9
20260901211559 89 70 0.0 4.0 0.00 0.00 0.00 68 1014.8
20260901211059 89 36 2.0 4.0 0.00 0.00 0.00 68 1014.8
20260901210558 88 29 0.0 4.0 0.00 0.00 0.00 69 1014.7
20260901210058 88 19 2.0 4.0 0.00 0.00 0.00 68 1014.6
20260901205556 88 53 0.0 8.0 0.00 0.00 0.00 68 1014.7
20260901205057 88 360 0.0 8.0 0.00 0.00 0.00 68 1014.6
20260901204557 88 329 1.0 4.0 0.00 0.00 0.00 69 1014.5
20260901204057 88 321 0.0 5.0 0.00 0.00 0.00 70 1014.5
20260901203556 87 313 2.0 5.0 0.00 0.00 0.00 69 1014.5
20260901203103 87 342 0.0 4.0 0.00 0.00 0.00 70 1014.5
20260901202556 87 342 1.0 4.0 0.00 0.00 0.00 70 1014.6
20260901202101 87 340 0.0 3.0 0.00 0.00 0.00 70 1014.6
20260901201553 87 360 1.0 4.0 0.00 0.00 0.00 70 1014.8
20260901201052 87 17 1.0 4.0 0.00 0.00 0.00 69 1015.2
20260901200551 87 303 1.0 5.0 0.00 0.00 0.00 69 1015.3
20260901200106 87 313 0.0 5.0 0.00 0.00 0.00 69 1015.5
20260901195553 88 34 2.0 5.0 0.00 0.00 0.00 69 1015.7
20260901195052 88 63 1.0 6.0 0.00 0.00 0.00 69 1015.8
20260901194558 88 22 1.0 6.0 0.00 0.00 0.00 67 1016.0
20260901194048 88 14 2.0 7.0 0.00 0.00 0.00 67 1016.0
20260901193548 88 347 2.0 4.0 0.00 0.00 0.00 69 1016.0
20260901193054 88 77 1.0 5.0 0.00 0.00 0.00 68 1016.0
20260901192547 88 88 2.0 5.0 0.00 0.00 0.00 69 1016.0
20260901192046 88 24 1.0 5.0 0.00 0.00 0.00 69 1015.9
20260901191546 88 350 2.0 5.0 0.00 0.00 0.00 69 1015.8
20260901191045 88 65 2.0 5.0 0.00 0.00 0.00 69 1015.9
20260901190545 88 23 3.0 5.0 0.00 0.00 0.00 69 1016.0
20260901190052 88 11 0.0 4.0 0.00 0.00 0.00 69 1016.0
20260901185545 88 342 1.0 4.0 0.00 0.00 0.00 70 1016.0
20260901185043 88 58 2.0 5.0 0.00 0.00 0.00 69 1016.0
20260901184548 88 62 1.0 5.0 0.00 0.00 0.00 70 1016.0
20260901184042 88 120 1.0 6.0 0.00 0.00 0.00 70 1016.0
20260901183543 88 26 2.0 6.0 0.00 0.00 0.00 70 1016.0
20260901183041 88 346 3.0 5.0 0.00 0.00 0.00 70 1016.0
20260901182543 88 328 2.0 5.0 0.00 0.00 0.00 70 1016.0
20260901182040 88 55 1.0 8.0 0.00 0.00 0.00 70 1016.0
20260901181541 88 81 3.0 8.0 0.00 0.00 0.00 70 1016.1
20260901181038 88 5 1.0 5.0 0.00 0.00 0.00 70 1016.1
20260901180537 88 69 2.0 10.0 0.00 0.00 0.00 69 1016.2
20260901180036 87 23 3.0 10.0 0.00 0.00 0.00 71 1016.3
20260901175538 88 327 2.0 9.0 0.00 0.00 0.00 71 1016.5
20260901175034 87 342 1.0 8.0 0.00 0.00 0.00 71 1016.5
20260901174539 87 15 4.0 8.0 0.00 0.00 0.00 71 1016.7
20260901174032 87 27 4.0 6.0 0.00 0.00 0.00 71 1016.9
20260901173531 87 319 2.0 6.0 0.00 0.00 0.00 71 1016.9
20260901173034 87 334 3.0 6.0 0.00 0.00 0.00 71 1017.2
20260901172529 87 329 1.0 5.0 0.00 0.00 0.00 71 1017.1
20260901172028 87 35 2.0 5.0 0.00 0.00 0.00 72 1017.2
20260901171527 87 26 2.0 5.0 0.00 0.00 0.00 72 1017.5
20260901171025 87 69 2.0 4.0 0.00 0.00 0.00 72 1017.4
20260901170524 86 65 1.0 6.0 0.00 0.00 0.00 73 1017.5
20260901170023 87 54 2.0 8.0 0.00 0.00 0.00 73 1017.6
20260901165525 86 36 2.0 5.0 0.00 0.00 0.00 73 1017.7
20260901165025 86 32 3.0 5.0 0.00 0.00 0.00 74 1017.8
20260901164522 86 5 2.0 5.0 0.00 0.00 0.00 74 1017.8
20260901164021 86 348 2.0 5.0 0.00 0.00 0.00 74 1017.9
20260901163521 86 348 2.0 9.0 0.00 0.00 0.00 74 1017.9
20260901163021 86 56 2.0 9.0 0.00 0.00 0.00 74 1017.8
20260901162521 86 343 3.0 12.0 0.00 0.00 0.00 73 1017.8
20260901162020 86 355 3.0 12.0 0.00 0.00 0.00 73 1017.7
20260901161520 86 328 3.0 9.0 0.00 0.00 0.00 74 1017.6
20260901161019 86 344 2.0 6.0 0.00 0.00 0.00 76 1017.6
20260901160519 86 5 2.0 9.0 0.00 0.00 0.00 76 1017.6
20260901160018 85 9 3.0 8.0 0.00 0.00 0.00 77 1017.5
20260901155518 85 321 2.0 9.0 0.00 0.00 0.00 78 1017.5
20260901155019 85 5 3.0 9.0 0.00 0.00 0.00 78 1017.4
20260901154517 85 320 3.0 11.0 0.00 0.00 0.00 78 1017.4
20260901154017 85 355 5.0 11.0 0.00 0.00 0.00 77 1017.4
20260901153519 85 55 2.0 8.0 0.00 0.00 0.00 78 1017.5
20260901153016 85 25 3.0 8.0 0.00 0.00 0.00 78 1017.3
20260901152515 85 345 3.0 8.0 0.00 0.00 0.00 78 1017.4
20260901152015 85 14 4.0 8.0 0.00 0.00 0.00 78 1017.4
20260901151524 85 349 3.0 9.0 0.00 0.00 0.00 78 1017.5
20260901151014 85 19 2.0 9.0 0.00 0.00 0.00 78 1017.5
20260901150512 85 89 3.0 9.0 0.00 0.00 0.00 78 1017.5
20260901150014 85 336 3.0 8.0 0.00 0.00 0.00 78 1017.4
20260901145510 85 17 2.0 5.0 0.00 0.00 0.00 78 1017.6
20260901145008 85 15 2.0 6.0 0.00 0.00 0.00 78 1017.4
20260901144515 85 69 2.0 8.0 0.00 0.00 0.00 78 1017.5
20260901144007 85 58 2.0 6.0 0.00 0.00 0.00 78 1017.5
20260901143506 85 329 2.0 6.0 0.00 0.00 0.00 78 1017.5
20260901143007 85 38 3.0 6.0 0.00 0.00 0.00 78 1017.7
20260901142507 85 22 0.0 4.0 0.00 0.00 0.00 79 1017.6
20260901142005 85 57 2.0 6.0 0.00 0.00 0.00 79 1017.6
20260901141504 85 61 3.0 6.0 0.00 0.00 0.00 79 1017.6
20260901141002 84 69 2.0 6.0 0.00 0.00 0.00 80 1017.6
20260901140502 84 314 2.0 6.0 0.00 0.00 0.00 81 1017.7
20260901140002 83 15 2.0 6.0 0.00 0.00 0.00 82 1017.7
20260901135604 83 30 2.0 6.0 0.00 0.00 0.00 83 1017.7
20260901135101 83 330 2.0 5.0 0.00 0.00 0.00 84 1017.7
20260901134600 82 64 0.0 5.0 0.00 0.00 0.00 84 1017.8
20260901134059 82 47 1.0 5.0 0.00 0.00 0.00 85 1018.0
20260901133558 82 17 0.0 4.0 0.00 0.00 0.00 85 1018.0
20260901133059 81 34 1.0 3.0 0.00 0.00 0.00 86 1017.9
20260901132557 81 19 1.0 3.0 0.00 0.00 0.00 86 1017.8
20260901132058 81 64 0.0 5.0 0.00 0.00 0.00 86 1017.8
20260901131555 81 36 1.0 4.0 0.00 0.00 0.00 87 1017.7
20260901131055 81 340 1.0 4.0 0.00 0.00 0.00 87 1017.6
20260901130554 81 329 1.0 6.0 0.00 0.00 0.00 87 1017.4
20260901130053 81 344 3.0 6.0 0.00 0.00 0.00 87 1017.4
20260901125554 81 355 1.0 6.0 0.00 0.00 0.00 87 1017.2
20260901125053 81 5 2.0 6.0 0.00 0.00 0.00 87 1017.3
20260901124554 81 355 1.0 3.0 0.00 0.00 0.00 87 1017.2
20260901124056 81 13 0.0 4.0 0.00 0.00 0.00 87 1017.2
20260901123553 81 13 0.0 4.0 0.00 0.00 0.00 87 1017.2
20260901123114 81 338 1.0 3.0 0.00 0.00 0.00 87 1017.0
20260901122554 81 12 1.0 3.0 0.00 0.00 0.00 88 1017.0
20260901122052 81 30 1.0 4.0 0.00 0.00 0.00 87 1016.9
20260901121604 81 5 0.0 4.0 0.00 0.00 0.00 87 1016.9
20260901121052 81 48 1.0 3.0 0.00 0.00 0.00 88 1016.9
20260901120552 81 5 0.0 4.0 0.00 0.00 0.00 88 1016.8
20260901120055 81 36 1.0 4.0 0.00 0.00 0.00 88 1016.8
20260901115551 81 26 0.0 3.0 0.00 0.00 0.00 88 1016.8
20260901115052 81 13 0.0 3.0 0.00 0.00 0.00 88 1016.7
20260901114551 81 9 0.0 3.0 0.00 0.00 0.00 88 1016.7
20260901114051 81 26 0.0 3.0 0.00 0.00 0.00 88 1016.7
20260901113551 81 39 0.0 3.0 0.00 0.00 0.00 88 1016.7
20260901113059 81 327 0.0 5.0 0.00 0.00 0.00 88 1016.7
20260901112550 81 333 0.0 3.0 0.00 0.00 0.00 88 1016.7
20260901112050 81 5 1.0 3.0 0.00 0.00 0.00 88 1016.7
20260901111551 81 11 0.0 2.0 0.00 0.00 0.00 88 1016.7
20260901111052 81 10 0.0 3.0 0.00 0.00 0.00 88 1016.7
20260901110550 81 10 0.0 3.0 0.00 0.00 0.00 88 1016.7
20260901110050 81 26 0.0 3.0 0.00 0.00 0.00 88 1016.6
20260901105549 80 65 0.0 2.0 0.00 0.00 0.00 88 1016.6
20260901105049 80 65 0.0 3.0 0.00 0.00 0.00 88 1016.6
20260901104558 80 65 0.0 3.0 0.00 0.00 0.00 88 1016.5
20260901104049 80 142 0.0 1.0 0.00 0.00 0.00 88 1016.4
20260901103548 80 142 0.0 1.0 0.00 0.00 0.00 88 1016.4
20260901103048 80 142 0.0 1.0 0.00 0.00 0.00 88 1016.5
20260901102548 80 142 0.0 1.0 0.00 0.00 0.00 88 1016.5
20260901102048 80 142 0.0 1.0 0.00 0.00 0.00 88 1016.4
20260901101548 80 142 0.0 0.0 0.00 0.00 0.00 88 1016.5
20260901101047 80 142 0.0 0.0 0.00 0.00 0.00 88 1016.5
20260901100551 80 142 0.0 0.0 0.00 0.00 0.00 88 1016.6
20260901095549 80 142 0.0 0.0 0.00 0.00 0.00 88 1016.5
20260901095045 80 142 0.0 0.0 0.00 0.00 0.00 88 1016.6
20260901094546 80 142 0.0 0.0 0.00 0.00 0.00 88 1016.6
20260901094045 80 142 0.0 0.0 0.00 0.00 0.00 88 1016.6
20260901093544 80 142 0.0 0.0 0.00 0.00 0.00 88 1016.7
20260901093054 80 142 0.0 0.0 0.00 0.00 0.00 87 1016.6
20260901092544 80 142 0.0 0.0 0.00 0.00 0.00 88 1016.5
20260901092043 80 142 0.0 0.0 0.00 0.00 0.00 87 1016.7
20260901091542 80 142 0.0 0.0 0.00 0.00 0.00 87 1016.7
20260901091042 80 142 0.0 0.0 0.00 0.00 0.00 87 1016.7
20260901090541 80 142 0.0 0.0 0.00 0.00 0.00 87 1016.7
20260901090042 80 142 0.0 0.0 0.00 0.00 0.00 86 1016.8
20260901085541 81 142 0.0 2.0 0.00 0.00 0.00 87 1016.7
20260901085041 81 142 0.0 2.0 0.00 0.00 0.00 87 1016.7
20260901084540 81 142 0.0 0.0 0.00 0.00 0.00 86 1016.7
20260901084040 81 142 0.0 0.0 0.00 0.00 0.00 86 1016.7
20260901083540 81 142 0.0 0.0 0.00 0.00 0.00 86 1016.6
20260901083040 81 142 0.0 0.0 0.00 0.00 0.00 86 1016.6
20260901082540 81 142 0.0 0.0 0.00 0.00 0.00 86 1016.6
20260901082043 81 142 0.0 1.0 0.00 0.00 0.00 86 1016.7
20260901081538 81 142 0.0 1.0 0.00 0.00 0.00 86 1016.7
20260901081039 81 142 0.0 0.0 0.00 0.00 0.00 86 1016.8
20260901080537 81 142 0.0 0.0 0.00 0.00 0.00 86 1016.8
20260901080037 81 142 0.0 0.0 0.00 0.00 0.00 86 1016.9
20260901075537 81 142 0.0 0.0 0.00 0.00 0.00 86 1016.9
20260901075037 81 142 0.0 0.0 0.00 0.00 0.00 86 1017.0
20260901074536 81 142 0.0 0.0 0.00 0.00 0.00 86 1017.0
20260901074036 81 142 0.0 0.0 0.00 0.00 0.00 86 1016.9
20260901073536 81 142 0.0 0.0 0.00 0.00 0.00 85 1016.9
20260901073040 81 142 0.0 0.0 0.00 0.00 0.00 85 1016.9
20260901072537 81 142 0.0 0.0 0.00 0.00 0.00 85 1016.9
20260901072036 81 142 0.0 0.0 0.00 0.00 0.00 85 1016.8
20260901071534 81 142 0.0 0.0 0.00 0.00 0.00 85 1016.9
20260901071033 81 142 0.0 0.0 0.00 0.00 0.00 85 1017.0
20260901070533 82 142 0.0 0.0 0.00 0.00 0.00 85 1017.0
20260901070034 82 142 0.0 0.0 0.00 0.00 0.00 85 1016.9
20260901065533 82 142 0.0 0.0 0.00 0.00 0.00 84 1017.1
20260901065032 82 142 0.0 0.0 0.00 0.00 0.00 84 1017.1
20260901064536 82 142 0.0 0.0 0.00 0.00 0.00 84 1017.0
20260901064035 82 142 0.0 0.0 0.00 0.00 0.00 84 1017.0
20260901063531 82 142 0.0 0.0 0.00 0.00 0.00 84 1017.0
20260901063036 82 142 0.0 0.0 0.00 0.00 0.00 84 1017.1
20260901062532 82 142 0.0 0.0 0.00 0.00 0.00 84 1017.1
20260901062031 82 142 0.0 0.0 0.00 0.00 0.00 84 1017.1
20260901061529 82 142 0.0 0.0 0.00 0.00 0.00 83 1017.1
20260901061029 82 142 0.0 0.0 0.00 0.00 0.00 83 1017.1
20260901060530 82 142 0.0 0.0 0.00 0.00 0.00 83 1017.1
20260901060029 83 142 0.0 0.0 0.00 0.00 0.00 83 1017.2
20260901055528 83 142 0.0 0.0 0.00 0.00 0.00 83 1017.2
20260901055027 83 142 0.0 0.0 0.00 0.00 0.00 82 1017.2
20260901054528 83 142 0.0 0.0 0.00 0.00 0.00 81 1017.2
20260901054026 83 142 0.0 0.0 0.00 0.00 0.00 81 1017.1
20260901053524 83 142 0.0 0.0 0.00 0.00 0.00 81 1017.0
20260901053023 83 142 0.0 0.0 0.00 0.00 0.00 81 1017.0
20260901052527 83 142 0.0 0.0 0.00 0.00 0.00 81 1017.1
20260901052023 83 142 0.0 0.0 0.00 0.00 0.00 81 1017.0
20260901051522 84 142 0.0 0.0 0.00 0.00 0.00 81 1017.0
20260901051024 84 142 0.0 0.0 0.00 0.00 0.00 80 1017.0
20260901050521 84 142 0.0 0.0 0.00 0.00 0.00 81 1016.9
20260901050022 84 142 0.0 0.0 0.00 0.00 0.00 80 1016.9
20260901045522 84 142 0.0 0.0 0.00 0.00 0.00 80 1016.9
20260901045019 84 142 0.0 0.0 0.00 0.00 0.00 80 1016.7
20260901044519 84 142 0.0 0.0 0.00 0.00 0.00 80 1016.8
20260901044019 84 142 0.0 0.0 0.00 0.00 0.00 80 1016.8
20260901043518 84 142 0.0 0.0 0.00 0.00 0.00 80 1016.7
20260901043020 84 144 0.0 0.0 0.00 0.00 0.00 79 1016.8
20260901042520 84 138 0.0 1.0 0.00 0.00 0.00 79 1016.8
20260901042017 84 138 0.0 1.0 0.00 0.00 0.00 79 1016.8
20260901041516 85 136 0.0 0.0 0.00 0.00 0.00 79 1016.9
20260901041017 85 136 0.0 0.0 0.00 0.00 0.00 78 1016.9
20260901040517 85 136 0.0 1.0 0.00 0.00 0.00 78 1016.8
20260901040018 85 136 0.0 1.0 0.00 0.00 0.00 77 1016.8
20260901035517 85 136 0.0 1.0 0.00 0.00 0.00 77 1016.8
20260901035016 85 136 0.0 3.0 0.00 0.00 0.00 76 1016.9
20260901034516 85 136 0.0 3.0 0.00 0.00 0.00 76 1016.8
20260901034016 85 157 0.0 3.0 0.00 0.00 0.00 76 1016.8
20260901033516 85 153 0.0 3.0 0.00 0.00 0.00 76 1016.7
20260901033016 85 154 0.0 3.0 0.00 0.00 0.00 76 1016.7
20260901032518 85 170 0.0 2.0 0.00 0.00 0.00 76 1016.7
20260901032016 85 173 0.0 0.0 0.00 0.00 0.00 75 1016.5
20260901031514 85 175 0.0 0.0 0.00 0.00 0.00 75 1016.3
20260901031015 85 174 0.0 0.0 0.00 0.00 0.00 75 1016.4
20260901030515 85 174 0.0 0.0 0.00 0.00 0.00 75 1016.3
20260901030015 85 174 0.0 0.0 0.00 0.00 0.00 74 1016.3
20260901025518 86 174 0.0 0.0 0.00 0.00 0.00 75 1016.1
20260901025015 86 174 0.0 0.0 0.00 0.00 0.00 74 1016.0
20260901024526 86 174 0.0 0.0 0.00 0.00 0.00 74 1015.9
20260901024017 86 175 0.0 0.0 0.00 0.00 0.00 74 1015.9
20260901023518 86 174 0.0 1.0 0.00 0.00 0.00 74 1015.9
20260901023014 86 174 0.0 1.0 0.00 0.00 0.00 73 1015.9
20260901022515 86 174 0.0 1.0 0.00 0.00 0.00 73 1015.7
20260901022015 86 174 0.0 1.0 0.00 0.00 0.00 73 1015.7
20260901021516 86 175 0.0 2.0 0.00 0.00 0.00 73 1015.6
20260901021014 86 175 0.0 5.0 0.00 0.00 0.00 73 1015.5
20260901020513 87 175 0.0 5.0 0.00 0.00 0.00 72 1015.5
20260901020012 87 153 0.0 2.0 0.00 0.00 0.00 72 1015.4
20260901015513 87 153 0.0 2.0 0.00 0.00 0.00 72 1015.3
20260901015012 87 152 0.0 3.0 0.00 0.00 0.00 72 1015.3
20260901014512 87 150 0.0 5.0 0.00 0.00 0.00 71 1015.4
20260901014012 87 154 0.0 5.0 0.00 0.00 0.00 71 1015.4
20260901013513 87 143 1.0 3.0 0.00 0.00 0.00 71 1015.3
20260901013012 87 171 0.0 3.0 0.00 0.00 0.00 71 1015.2
20260901012516 88 172 0.0 4.0 0.00 0.00 0.00 70 1015.1
20260901012013 88 172 2.0 5.0 0.00 0.00 0.00 70 1015.2
20260901011512 88 142 3.0 5.0 0.00 0.00 0.00 70 1015.1
20260901011011 88 138 1.0 4.0 0.00 0.00 0.00 69 1015.2
20260901010511 88 121 1.0 4.0 0.00 0.00 0.00 69 1015.2
20260901010013 89 137 1.0 5.0 0.00 0.00 0.00 69 1015.1
20260901005510 89 166 2.0 7.0 0.00 0.00 0.00 68 1015.2
20260901005011 89 154 2.0 7.0 0.00 0.00 0.00 68 1015.1
20260901004528 89 151 2.0 7.0 0.00 0.00 0.00 68 1015.2
20260901004009 89 144 1.0 4.0 0.00 0.00 0.00 68 1015.3
20260901003511 89 132 1.0 4.0 0.00 0.00 0.00 68 1015.3
20260901003009 89 138 1.0 4.0 0.00 0.00 0.00 68 1015.3
20260901002509 89 165 1.0 6.0 0.00 0.00 0.00 68 1015.3
20260901002008 89 175 2.0 6.0 0.00 0.00 0.00 67 1015.2
20260901001519 90 79 1.0 6.0 0.00 0.00 0.00 67 1015.3
20260901001009 90 163 1.0 7.0 0.00 0.00 0.00 67 1015.3
20260901000511 90 154 2.0 7.0 0.00 0.00 0.00 68 1015.3